Theta_e
331 335 334 334 332 329 326 321 318 317 318 319 320 320 321 321 321 321 322 325 325 324 322 321 320 319 318 320 318 319 321 322 322 322 323 325 326 324 326 327 327 328 330
328 332 332 333 333 329 327 325 322 320 317 318 320 321 321 322 322 321 319 320 322 323 321 319 318 318 318 319 318 319 321 322 324 327 322 323 325 324 323 324 324 325 327
329 330 330 331 333 331 328 325 323 321 319 317 318 319 320 321 321 320 320 320 321 320 318 317 317 317 318 318 318 319 322 323 327 328 331 328 322 323 324 323 323 323 325
328 325 326 330 333 331 330 327 323 321 320 318 317 316 317 317 317 317 317 317 317 317 317 316 316 316 317 318 318 322 329 332 331 332 330 329 327 326 322 322 323 323 322
324 322 325 330 333 332 331 328 322 321 319 318 317 317 317 317 317 317 318 318 318 318 318 318 317 316 316 317 318 322 332 333 335 335 334 332 332 331 330 321 322 323 323
322 326 329 333 334 334 332 330 323 323 323 322 321 320 319 319 319 319 319 320 320 320 320 320 319 318 316 317 319 320 335 337 337 334 334 334 336 334 331 324 321 322 324
324 327 330 333 335 334 333 331 325 324 324 324 324 323 322 322 322 321 321 321 322 322 323 322 322 321 320 317 317 320 321 331 337 337 337 336 336 336 333 327 323 321 323
325 323 321 326 331 333 331 328 326 327 326 326 326 326 325 325 325 325 324 324 324 325 325 325 324 324 324 322 319 317 320 324 332 337 338 337 336 337 335 330 327 322 320
327 326 319 318 320 322 326 327 327 327 327 327 327 327 327 326 326 326 326 326 326 326 326 326 326 326 326 326 325 323 318 319 325 331 334 337 337 337 336 333 331 324 322
328 328 327 327 325 323 324 326 326 326 326 327 327 327 328 328 328 329 330 329 329 329 329 328 328 328 328 327 327 328 327 323 318 319 326 334 337 337 337 335 334 328 325
333 332 330 329 329 329 328 328 328 328 327 328 328 329 329 330 332 333 334 334 335 335 335 335 334 332 333 332 331 329 329 329 328 326 321 320 329 326 336 336 336 334 330
330 328 329 331 331 333 334 334 332 334 334 334 335 335 336 334 333 331 331 331 331 331 331 332 334 334 335 335 337 335 334 332 331 330 329 329 326 323 325 334 335 336 334
330 330 329 329 330 333 332 333 333 333 332 331 330 330 331 331 329 327 327 329 331 330 329 329 330 330 331 332 333 331 333 334 334 334 333 331 331 331 330 327 333 336 335
331 331 328 327 328 328 328 328 329 332 329 330 328 330 331 333 332 330 328 326 329 330 330 331 329 330 330 332 331 331 331 331 330 331 330 332 335 333 331 331 332 334 333
332 329 327 327 334 333 332 333 332 331 332 332 332 332 330 328 327 326 325 320 318 314 308 309 318 323 326 329 331 331 332 332 333 332 331 332 332 333 333 332 333 329 332
328 326 328 332 339 338 336 335 333 332 331 330 328 327 319 313 309 307 310 313 314 315 316 315 313 308 304 305 308 310 319 325 327 329 330 330 331 332 334 333 332 327 330
330 330 328 332 334 334 333 331 329 326 323 321 316 310 307 311 315 315 313 312 312 312 313 314 314 312 311 308 307 305 304 303 303 304 311 323 326 328 329 329 332 333 331
333 331 331 330 330 328 326 324 322 319 316 311 307 309 313 315 313 311 311 310 309 308 308 310 312 313 314 314 315 315 314 314 312 311 308 305 305 316 322 322 322 324 330
328 327 325 324 323 322 321 319 316 311 307 305 307 313 314 311 310 309 309 308 307 304 301 301 303 305 306 308 309 311 313 314 315 314 313 311 308 305 307 315 319 320 320
323 321 320 319 317 316 314 312 310 308 307 308 314 313 309 309 309 308 308 306 304 302 300 299 299 299 299 300 300 301 304 309 310 310 310 310 310 309 306 305 312 315 318
318 317 316 315 314 312 311 311 311 310 308 311 313 309 307 308 307 307 307 304 302 302 302 301 302 300 299 298 299 301 302 304 307 311 311 311 311 312 313 313 312 311 311
315 315 314 313 313 312 311 310 310 309 307 312 312 309 309 307 306 306 307 306 301 300 301 300 299 299 298 299 299 299 303 304 306 307 305 307 309 309 311 313 315 319 321
316 316 315 314 313 312 312 310 307 306 309 312 311 309 308 306 305 307 306 307 306 301 300 299 299 298 298 298 299 302 303 305 301 302 301 303 306 305 308 310 311 312 315
317 316 314 313 312 312 310 309 307 308 311 311 309 307 307 306 307 308 306 306 306 305 303 300 299 299 299 299 299 300 301 302 303 303 302 301 300 301 302 305 309 309 309
317 316 313 312 312 311 310 308 308 310 309 308 308 309 308 307 308 307 306 305 305 305 303 302 301 301 301 300 300 300 300 301 301 302 301 302 300 301 301 302 302 304 308
316 315 313 312 312 312 311 308 309 308 308 309 309 309 308 308 307 306 305 304 304 303 302 302 302 302 302 302 301 301 301 301 301 301 302 301 301 298 297 297 298 301 302
Wind_Speed
20 21 19 18 16 12 11 13 13 12 12 13 14 14 13 12 11 11 10 9 8 7 7 8 8 8 8 9 9 8 9 9 10 11 11 11 10 11 12 12 11 12 13
23 24 21 19 17 15 14 13 13 12 11 11 12 13 13 12 10 9 9 8 6 5 6 6 7 7 7 7 8 8 8 10 12 11 12 12 10 9 9 9 9 10 10
25 24 22 20 18 16 14 14 13 13 12 11 11 11 11 11 10 9 7 5 4 4 4 4 5 5 6 5 6 7 8 9 11 11 11 12 11 9 8 7 7 8 8
23 22 21 19 19 17 14 12 12 12 11 11 10 8 8 7 7 7 6 4 3 3 4 4 3 4 4 4 5 6 8 9 9 7 8 9 9 10 9 7 4 4 6
22 20 19 19 18 16 13 11 10 10 10 10 10 9 8 7 7 6 5 4 3 2 3 3 2 2 3 2 4 6 8 8 7 4 5 5 6 6 7 6 4 1 4
20 18 16 15 16 13 10 8 8 8 7 7 8 8 7 5 4 3 3 2 1 2 3 4 4 3 1 1 3 6 7 7 6 4 3 1 1 2 3 3 2 2 4
20 19 17 16 15 13 10 7 8 8 7 5 4 4 4 3 1 2 2 3 3 3 3 4 5 5 4 2 4 6 8 10 8 6 4 3 4 3 3 2 2 4 4
19 15 13 13 12 10 9 9 8 7 6 6 4 2 1 1 2 3 4 5 6 6 6 6 7 8 7 6 5 7 8 10 11 10 9 8 8 8 6 6 4 5 6
19 14 11 8 6 6 5 6 6 7 6 5 4 4 4 4 4 5 6 7 8 10 9 10 10 11 11 11 10 9 10 12 14 14 12 12 11 12 12 9 8 7 8
20 15 11 7 5 3 3 4 5 5 6 7 7 7 7 8 8 9 10 10 11 13 13 13 14 14 15 15 14 13 13 13 15 16 16 15 14 11 15 14 12 11 10
16 10 5 9 10 6 5 7 7 6 8 9 10 10 11 11 12 14 16 17 19 20 21 19 19 18 19 18 17 17 17 16 17 18 17 18 19 16 16 18 18 15 14
19 14 17 10 6 3 6 8 8 9 12 13 13 14 13 11 10 12 15 17 19 22 23 23 21 22 22 20 21 20 20 20 21 21 22 20 21 20 21 22 21 18 16
4 6 9 12 6 4 4 4 2 8 11 9 9 11 13 11 12 12 15 19 21 20 24 21 22 21 26 22 19 18 20 22 19 21 24 23 22 23 24 25 21 19 19
12 9 6 12 10 5 8 15 13 12 22 14 15 14 12 10 9 12 15 23 23 19 19 21 21 22 28 26 23 27 25 25 22 20 20 23 22 23 28 28 25 21 24
9 8 11 14 10 9 12 16 17 16 17 13 12 7 5 7 7 7 6 7 8 12 16 17 15 19 21 24 24 27 23 22 21 22 22 19 22 20 20 27 25 27 29
4 4 12 9 8 10 9 11 11 8 4 3 6 6 7 9 10 13 14 15 16 14 15 16 16 17 19 20 19 20 22 22 22 21 23 21 20 21 20 25 31 33 33
2 5 4 4 4 4 3 5 6 8 10 10 10 10 10 10 13 15 16 16 17 17 17 17 17 17 16 15 16 15 17 17 18 20 23 26 24 22 22 23 26 25 32
7 7 8 7 6 6 7 8 9 9 8 9 10 10 11 13 14 15 16 18 20 20 20 20 20 20 21 22 23 23 21 20 17 16 15 19 25 28 26 25 25 24 29
7 6 7 8 7 8 8 8 9 10 9 9 9 10 11 13 14 16 18 20 21 21 20 20 21 22 23 23 23 23 22 23 22 20 19 20 21 22 27 29 29 28 27
6 6 7 6 7 8 7 7 7 7 7 7 9 10 11 13 16 19 21 22 22 21 21 21 21 20 21 23 22 21 19 18 15 12 12 12 14 18 22 26 31 31 28
6 5 5 6 6 5 5 6 7 8 7 6 9 10 11 15 19 22 23 22 21 22 24 24 23 23 24 26 27 24 16 12 7 5 9 8 8 8 12 16 22 26 30
8 7 6 6 7 8 8 9 8 7 4 7 9 8 10 15 19 23 25 24 22 22 22 23 24 24 24 25 26 24 18 22 7 11 15 13 11 10 8 6 7 12 15
8 8 9 9 9 8 9 7 6 3 3 8 6 7 12 15 19 22 23 25 24 24 25 24 23 24 24 24 22 15 11 9 35 20 26 20 18 18 12 7 5 6 11
6 5 6 6 8 7 7 6 5 4 6 7 8 10 13 18 21 22 23 23 23 25 24 24 22 22 23 23 22 20 16 19 23 24 28 33 29 27 22 17 14 10 9
4 4 4 4 6 8 8 5 4 4 4 5 8 11 14 18 18 20 19 18 21 24 22 20 21 21 22 23 23 24 24 23 23 21 35 32 35 29 29 27 22 20 20
9 8 5 2 5 7 6 3 2 2 2 7 12 15 18 19 19 20 18 20 21 24 24 25 25 25 23 21 23 24 24 26 28 31 34 37 38 37 33 33 29 25 25
Wind_Direction
179 175 171 160 161 151 135 128 128 131 130 128 129 129 125 122 124 128 134 135 125 114 107 98 90 85 88 91 89 93 95 95 91 87 83 78 83 88 94 96 98 101 105
175 173 172 163 165 159 149 136 127 124 125 129 129 129 130 130 129 131 137 142 139 110 81 71 70 74 83 92 101 112 120 117 110 98 94 80 77 72 80 89 95 103 106
173 172 171 165 169 166 156 148 144 140 136 134 135 137 138 135 132 132 128 121 110 92 84 76 81 92 96 102 114 126 131 130 128 106 94 79 77 64 55 71 98 110 118
175 172 169 166 172 170 164 156 152 148 143 137 134 133 129 120 111 106 109 106 84 63 55 54 65 88 112 128 134 142 145 140 139 118 98 90 81 66 53 35 51 98 122
172 166 167 168 175 175 172 164 157 151 143 133 131 129 126 124 122 119 119 114 99 61 37 40 49 75 111 141 153 166 163 155 157 155 144 94 74 66 53 44 3 151 157
162 155 162 164 169 173 171 164 152 148 145 135 129 131 131 126 131 139 134 114 70 46 2 351 352 357 27 178 188 189 187 186 196 178 158 118 31 51 39 40 352 263 188
153 153 159 158 164 167 171 173 165 157 155 147 132 132 126 117 23 343 349 334 329 325 321 320 318 318 312 270 236 222 219 216 216 218 233 271 247 241 261 288 288 288 243
152 148 146 154 164 175 176 176 173 172 175 173 179 178 190 213 244 271 297 300 301 300 299 295 296 297 295 287 262 246 240 237 229 225 242 263 258 248 246 264 263 262 271
150 151 142 132 137 164 181 187 187 191 196 204 212 219 237 243 252 268 283 292 298 295 291 291 287 284 279 273 269 258 252 248 243 239 241 249 269 250 239 246 264 255 274
150 147 142 149 186 166 194 209 218 220 237 239 244 253 258 264 271 269 270 273 266 271 272 269 269 268 269 267 262 259 255 252 254 249 247 245 252 252 243 244 246 259 256
124 99 154 187 174 209 248 261 266 270 279 289 288 286 286 291 299 306 306 299 296 290 285 272 269 266 266 268 264 259 255 253 253 256 253 249 249 252 253 251 249 247 257
98 44 275 222 242 232 259 276 277 318 321 313 307 304 303 305 308 311 313 309 305 309 309 302 290 285 277 281 275 265 258 252 250 253 254 254 254 255 253 253 247 245 251
127 298 220 210 157 128 268 292 352 333 300 305 319 312 302 308 309 315 322 322 314 311 309 311 311 301 292 287 275 281 282 267 259 260 259 257 256 259 257 256 251 241 250
197 257 242 212 208 175 234 274 282 245 257 260 258 260 260 281 304 318 328 308 313 316 311 306 308 296 293 284 285 291 269 264 266 262 261 258 258 255 244 243 245 239 258
218 208 191 183 196 229 232 239 241 240 254 249 256 267 308 1 11 15 2 355 326 336 342 340 330 307 298 291 288 277 281 277 270 268 265 252 254 250 245 238 235 239 250
115 135 172 198 223 251 244 255 267 282 298 19 38 36 41 39 37 39 35 21 12 3 347 340 340 333 322 309 297 289 285 285 284 283 281 275 269 256 247 244 240 238 247
18 71 153 252 258 255 319 28 75 69 69 63 62 69 68 51 34 34 30 22 14 3 350 335 321 309 302 302 309 312 309 301 296 285 276 271 268 265 257 255 245 246 246
64 75 91 93 92 86 84 78 66 63 58 68 69 59 46 39 33 32 24 18 12 2 352 341 329 315 306 303 298 295 293 294 301 303 299 286 274 267 262 255 253 246 245
77 76 89 85 72 61 57 51 47 55 61 62 59 51 45 43 34 24 17 11 6 1 355 348 341 333 328 322 316 308 299 289 287 289 289 286 282 272 266 263 257 255 251
82 72 62 62 54 43 35 32 42 48 51 68 56 48 50 38 25 16 10 6 4 2 358 353 347 344 342 336 335 335 327 295 284 275 282 289 282 274 267 264 260 259 254
82 68 63 56 52 49 26 18 19 24 40 51 37 44 39 24 18 15 12 9 7 4 359 353 349 345 346 345 339 334 351 352 293 300 324 318 296 282 275 269 266 265 265
74 65 61 58 47 34 14 359 350 357 33 23 23 25 14 9 8 6 7 6 2 1 357 352 351 349 348 356 353 347 341 336 300 310 309 313 312 343 298 285 294 271 264
122 96 80 72 63 59 43 13 348 354 19 7 7 357 356 356 354 356 359 357 353 351 351 351 348 348 347 349 356 360 342 317 320 323 310 309 305 307 303 303 279 270 263
128 117 103 89 72 63 48 37 13 347 345 355 356 348 342 345 344 347 353 353 349 345 341 342 343 343 341 340 343 343 332 322 322 317 314 311 309 305 300 284 278 271 275
180 163 147 107 76 55 46 43 24 355 26 15 344 337 337 346 345 343 349 343 332 331 333 334 333 336 339 336 334 330 327 325 320 310 309 313 308 303 303 302 291 281 275
199 198 179 119 66 50 39 61 34 65 26 318 330 330 338 337 338 333 333 330 327 324 325 326 325 323 322 322 325 322 320 319 315 313 308 309 310 308 307 302 298 290 283